Weather in Protasovo

Russia / Oryol Oblast     53°04′15″N   36°29′35″E
temp.,
°C
wind,
m/s
gust,
m/s
humid.,
%
clouds,
%
prec.,
mm/h
press.,
hPa
HPBL,
m
14 april, wed
wed1400:00+12sse38785 0.0 1020194
03:00+10sse489373 0.0 1020190
06:00+9s359497 0.0 1020106
09:00+12sse247826 0.0 1020362
12:00+16sse3560100 0.0 10181100
15:00+19se46348 0.0 10162275
18:00+17se4736100 0.0 1015232
21:00+13se3644100 0.0 1016103
15 april, thu
thu1500:00+12e3450100 0.0 101563
03:00+11ese4854100 0.0 1015141
06:00+11ene51156100 0.0 1014194
09:00+13ese51257100 0.0 1013698
12:00+17ese694575 0.0 10131976
15:00+15sse475497 0.3 1012600
18:00+16se135494 1.2 1013214
21:00+13s236279 1.7 101459
16 april, fri
fri1600:00+12ese2266100 0.0 101424
03:00+10sse33805 0.0 101534
06:00+9e3479100 0.0 101585
09:00+12ese6969100 0.1 1016831
12:00+13e566387 0.2 10161118
15:00+15se6754100 2.3 10161432
18:00+14sse475495 0.5 1016405
21:00+11nnw11685 0.5 101814
17 april, sat
sat1700:00+10ne237989 0.0 101868
03:00+9ene389299 0.7 1019214
06:00+8ne51097100 0.0 1019310
09:00+9ene61088100 0.1 1019472
12:00+14ene91265100 0.1 10181171
15:00+16ene91259100 0.3 10181647
18:00+13e6117097 1.6 10191217
21:00+10e4887100 2.7 1021459
18 april, sun
sun1800:00+9e5119099 1.8 1021626
03:00+8e2592100 2.2 1022366
06:00+8ene3593100 1.1 1023290
09:00+7ene5884100 1.3 1024448
12:00+8ene5780100 0.2 1024484
15:00+10ene7874100 0.2 10241016
18:00+9e3973100 0.1 1025507
21:00+7ese1181100 0.1 102612